Current Version              Previous Version:    01  02  03  04  05  06  07  08  09  10  11  12  13  14  15  16  17  18  19  20  21  22  23  24  25  26  27  28  29  30  
   31  32  33  34  35  36  37  38  39  40  41  42  43  44  45  46  47  48  49  50  51  52  53  54  55  56  57  58  59  60  

[Printable]
560
ASUS44 KLUB 171210
RWRTX
WEST TEXAS WEATHER ROUNDUP
NATIONAL WEATHER SERVICE LUBBOCK TX
700 AM CDT THU APR 17 2014

NOTE: "FAIR" INDICATES FEW OR NO CLOUDS BELOW 12,000 FEET WITH NO
SIGNIFICANT WEATHER AND/OR OBSTRUCTIONS TO VISIBILITY.

TXZ004-006>008-010-012-014-016-OKZ002-171300-
TEXAS PANHANDLE/OKLAHOMA PANHANDLE

CITY           SKY/WX    TMP DP  RH WIND       PRES   REMARKS
AMARILLO       CLOUDY    45  34  65 N15       30.06R
BORGER         CLOUDY    45  32  60 NE17      30.09R
CANADIAN       MOCLDY    46  35  66 E9        30.10R
DALHART        CLOUDY    44  32  62 N18       30.13R
DUMAS          CLOUDY    42  31  64 NE16G25   30.12R
GUYMON         CLOUDY    44  34  67 NE14      30.15R
HEREFORD       PTCLDY    44  32  64 N16       30.05R
PAMPA          CLOUDY    43  33  67 E15       30.07R HAZE
PERRYTON       CLOUDY    43  33  68 NE17      30.12R
$$

TXZ026-029-035-045-048-171300-
SOUTHERN PANHANDLE/SOUTH PLAINS/ROLLING PLAINS

CITY           SKY/WX    TMP DP  RH WIND       PRES   REMARKS
CHILDRESS      CLOUDY    50  43  77 E10       30.01R
SEMINOLE       CLOUDY    47  34  61 CALM      29.94R
LUBBOCK        CLOUDY    49  32  52 E16       29.94R
PLAINVIEW      CLOUDY    50  38  62 E12       29.96R
SNYDER         CLOUDY    54  39  57 N7        30.00R
$$

TXZ052-054-060>062-072-078-127-140-154-169-171300-
PERMIAN BASIN/CONCHO VALLEY/BIG COUNTRY/EDWARDS PLATEAU

CITY           SKY/WX    TMP DP  RH WIND       PRES   REMARKS
ABILENE        CLOUDY    55  47  74 SE13      30.00R
BIG SPRING     CLOUDY    56  42  58 NE7       29.98R
BRADY          CLOUDY    57  52  82 SE9       29.95R
BROWNWOOD      CLOUDY    57  50  77 SE15      30.00R
JUNCTION       CLOUDY    59  52  77 S15G22    29.94R
MIDLAND        CLOUDY    53  40  61 N10       29.93R
ODESSA         CLOUDY    54  42  64 N9        29.94R
SAN ANGELO     CLOUDY    58  50  75 S10       29.91R
SONORA         CLOUDY    57  52  82 S14       29.92S
SWEETWATER     CLOUDY    55  46  72 E7        30.03R
WINK           MOCLDY    51  39  63 NE7       29.88R
$$

TXZ055-058-074-075-080-082-171300-
FAR WEST/SOUTHWEST MOUNTAINS/TRANS PECOS

CITY           SKY/WX    TMP DP  RH WIND       PRES   REMARKS
ALPINE         CLEAR     54  18  24 E9        30.01R
DRYDEN           N/A     50  46  86 NE8       29.89R
EL PASO        MOCLDY    60   2   9 NE10      29.94R
FORT STOCKTON  PTCLDY    54  31  41 W16       29.90R
GUADALUPE PASS CLEAR     50  20  30 E7        30.00R
MARFA          PTCLDY    57   9  14 NW6       29.97R
PECOS          PTCLDY    52  32  47 NW7       29.92R
PRESIDIO       FAIR      54  18  24 CALM      29.88R
$$

TXZ014-016-019-021>030-083-171300
TEXAS TECH WEST TEXAS MESONET/TEXAS PANHANDLE/NORTHERN SOUTH PLAINS

CITY           SKY/WX    TMP DP  RH WIND       PRES   REMARKS
ABERNATHY 5ENE   N/A     47  34  61 E14       29.96R
AMARILLO 9NNE    N/A     44  33  63 N14       30.09R
AMARILLO 7SSE    N/A     45  34  66 N18       30.08R
AMHERST 1NE      N/A     46  30  53 NE9       29.97R
BOOTLEG 11WNW    N/A     37  28  69 N14       30.09R WCI  29
CANADIAN 6E      N/A     42  32  67 NE16      30.09R
CAPROCK CYN SP   N/A     49  39  67 NE5       30.00R
CHILDRESS 2NNE   N/A     49  43  80 E13       30.01R
CLARENDON 2WSW   N/A     48  40  75 NE12      30.02S
CLAUDE 12SW      N/A     45  38  74 NE9       30.05R
DIMMITT 2NE      N/A     43  32  63 N14       30.03R
FLOYDADA 2NNE    N/A     47  39  74 E18       29.97S
FRIONA 2NE       N/A     41  31  68 N16       30.06R
GOODLETT 3W      N/A     49  42  78 E8        30.02R
HART 3N          N/A     45  34  65 N10       30.02R
HEREFORD 2NW     N/A     42  31  67 N17       30.06R
MCLEAN 1E        N/A     45  39  79 NE12      30.04R
MEMPHIS 1NE      N/A     50  42  74 NE8       30.03R
MULESHOE 2SSW    N/A     45  31  57 N13       30.01R
OLTON 6S         N/A     47  31  53 E9        29.98R
PALO DURO SP     N/A     46  34  64 N9        30.07R
PAMPA 2E         N/A     44  34  69 NE13      30.06R
PLAINVIEW 1S     N/A     47  37  66 E9        29.96R
SILVERTON 7ESE   N/A     47  36  66 E12       29.99R
TULIA 2ENE       N/A     46  36  68 NE8       30.00R
TURKEY 2WSW      N/A     50  40  67 NE5       30.00R
UMBARGER 3NNE    N/A     42  32  66 N17       30.07R
$$

TXZ033>036-039>041-045>048-171300
TEXAS TECH WEST TEXAS MESONET/SOUTH PLAINS

CITY           SKY/WX    TMP DP  RH WIND       PRES   REMARKS
AIKEN 3WSW       N/A     47  38  72 E15       29.99R
ANDREWS 2NE      N/A     49  35  58 E5        29.93R
ANTON 6SSW       N/A     49  31  50 E14       29.95R
BROWNFIELD 2S    N/A     48  35  59 E9        29.93R
DENVR CTY 7WNW   N/A     44  27  51 N6        29.94R
GAIL 2ESE        N/A     53  37  56 E5        29.96R
LAMESA 2SE       N/A     50  38  62 E7        29.94F
LEVELLAND 4S     N/A     49  34  54 E10       29.94R
LUBBOCK 3WNW     N/A     49  32  50 E12       29.95R
MORTON 1ENE      N/A     46  31  54 NE6       29.96R
ODONNELL 1N      N/A     49  35  57 E9        29.94R
PLAINS 3N        N/A     44  26  49 W3        29.94R
RALLS 1SE        N/A     48  38  68 E15       29.98R
REESE CENTER     N/A     50  32  50 E13       29.94R
SEAGRAVES 1SW    N/A     49  35  58 E6        29.93R
SEMINOLE 2NNE    N/A     47  34  60 E5        29.93R
SLATON 2NE       N/A     48  35  60 E15       29.96R
SNYDER 3E        N/A     51  38  61 NE9       29.99R
SUNDOWN 8SW      N/A     48  33  55 E6        29.94R
TAHOKA 3NNE      N/A     47  31  54 E13       29.93S
WOLFFORTH 6SSW   N/A     49  32  51 E14       29.94R
$$

TXZ031-032-036>038-042>044-171300-
TEXAS TECH WEST TEXAS MESONET/ROLLING PLAINS

CITY           SKY/WX    TMP DP  RH WIND       PRES   REMARKS
ASPERMONT 3NE    N/A     52  45  77 E10       30.02R
FLUVANNA 3WNW    N/A     51  35  54 E12       29.97R
GRAHAM 5SSW      N/A     49  33  53 E8        29.95F
GUTHRIE 10WSW    N/A     52  44  76 SE16      29.99S
HASKELL 1NW      N/A     52  45  78 SE12      30.03R
JAYTON 1SSE      N/A     51  44  77 E17       30.00R
KNOX CITY 3NW    N/A     53  44  72 SE13      30.02R
LK A HENRY 1NW   N/A     50  37  62 E9        29.98R
NORTHFIELD 1S    N/A     51  43  75 E9        30.00R
ODELL 4ENE       N/A     47  42  84 E10       30.04R
PADUCAH 10SW     N/A     52  44  76 SE10      30.00S
POST 1NE         N/A     49  34  57 E7        29.97S
RRING SPRGS 3N   N/A     49  44  81 SE10      29.99S
SEYMOUR 3NW      N/A     51  45  79 SE12      30.03R
SPUR 1W          N/A     50  42  75 E12       29.98R
WEINERT 2NNE     N/A     51  44  78 SE10      30.04R
WHITE RVR 6NE    N/A     48  39  71 E9        29.98S
$$

TXZ052-054-060>062-072-078-127-140-154-169-171300-
TEXAS TECH WEST TEXAS MESONET/PERMIAN BASIN/
CONCHO VALLEY/BIG COUNTRY/EDWARDS PLATEAU

CITY           SKY/WX    TMP DP  RH WIND       PRES   REMARKS
COYANOSA 2N      N/A     48  33  54 W10       29.89R
JUNCTION 1SSW    N/A     59  51  76 S12       29.95R
MERTZON 3NNE     N/A     56  49  78 S12       29.92R
SAN ANGELO 7NW   N/A     54  45  71 E6        29.92R
STRLNG CT 4WSW   N/A     52  43  71 NW8       30.01R
ST LAWRNCE 5SW   N/A     52  44  73 NW13G25   29.94R
WALL 1E          N/A     58  48  71 SE12      29.92R
$$

TXZ055-058-074-075-080-082-171300-
TEXAS TECH WEST TEXAS MESONET/FAR WEST/SOUTHWEST MOUNTAINS/TRANS PECOS

CITY           SKY/WX    TMP DP  RH WIND       PRES   REMARKS
PRSMN GAP BBNP   N/A     55  38  52 N10       29.90R
GUADLPE MTN NP   N/A     53  16  23 CALM      30.00R
$$